• In Russia
  • List of Countries
  • For 7 days
  • Water Temperature
  • Satellite Maps
  • Weather Map
  • Weather Widgets
  • user-avatar
    Login

    Hourly Weather Kugoty

    Today, 25 September, Tuesday

    Time Temperature Precipitation Wind Pressure Humidity
    00:00 +6°C° 0 mm 0 mps 697 mmHg 67%
    01:00 +7°C° 0 mm 1 mps 697 mmHg 68%
    02:00 +6°C° 0 mm 1 mps 697 mmHg 69%
    03:00 +6°C° 0 mm 1 mps 697 mmHg 71%
    04:00 +5°C° 0 mm 1 mps 698 mmHg 72%
    05:00 +6°C° 0 mm 1 mps 698 mmHg 70%
    06:00 +7°C° 0 mm 1 mps 698 mmHg 68%
    07:00 +7°C° 0 mm 1 mps 698 mmHg 66%
    08:00 +10°C° 0 mm 1 mps 698 mmHg 59%
    09:00 +12°C° 0 mm 1 mps 698 mmHg 52%
    10:00 +15°C° 0 mm 1 mps 698 mmHg 44%
    11:00 +16°C° 0 mm 1 mps 698 mmHg 42%
    12:00 +19°C° 0 mm 1 mps 698 mmHg 40%
    13:00 +20°C° 0 mm 1 mps 698 mmHg 37%
    14:00 +20°C° 0 mm 1 mps 697 mmHg 39%
    15:00 +19°C° 0 mm 1 mps 697 mmHg 41%
    16:00 +19°C° 0 mm 1 mps 697 mmHg 43%
    17:00 +16°C° 0 mm 1 mps 697 mmHg 50%
    18:00 +13°C° 0 mm 1 mps 696 mmHg 56%
    19:00 +11°C° 0 mm 1 mps 696 mmHg 63%
    20:00 +10°C° 0 mm 1 mps 696 mmHg 64%
    21:00 +10°C° 0 mm 1 mps 696 mmHg 66%
    22:00 +9°C° 0 mm 1 mps 696 mmHg 67%
    23:00 +9°C° 0 mm 1 mps 696 mmHg 68%

    Tomorrow, 26 September, Wednesday

    Time Temperature Precipitation Wind Pressure Humidity
    00:00 +8°C° 0 mm 1 mps 696 mmHg 69%
    01:00 +8°C° 0 mm 1 mps 696 mmHg 69%
    02:00 +8°C° 0 mm 1 mps 695 mmHg 70%
    03:00 +8°C° 0 mm 1 mps 695 mmHg 71%
    04:00 +8°C° 0 mm 1 mps 695 mmHg 72%
    05:00 +8°C° 0 mm 1 mps 695 mmHg 70%
    06:00 +9°C° 0 mm 1 mps 695 mmHg 69%
    07:00 +9°C° 0 mm 1 mps 695 mmHg 68%
    08:00 +11°C° 0 mm 1 mps 695 mmHg 62%
    09:00 +14°C° 0 mm 1 mps 695 mmHg 56%
    10:00 +16°C° 0 mm 1 mps 695 mmHg 50%
    11:00 +18°C° 0 mm 1 mps 694 mmHg 49%
    12:00 +18°C° 0 mm 1 mps 694 mmHg 48%
    13:00 +18°C° 0 mm 2 mps 694 mmHg 48%
    14:00 +17°C° 0.1 mm 2 mps 694 mmHg 54%
    15:00 +16°C° 0.1 mm 3 mps 693 mmHg 61%
    16:00 +13°C° 0.1 mm 3 mps 693 mmHg 68%
    17:00 +12°C° 0.1 mm 3 mps 693 mmHg 75%
    18:00 +10°C° 0.1 mm 3 mps 693 mmHg 81%
    19:00 +7°C° 0.1 mm 4 mps 694 mmHg 88%
    20:00 +7°C° 0.3 mm 4 mps 694 mmHg 87%
    21:00 +6°C° 0.3 mm 4 mps 694 mmHg 86%
    22:00 +6°C° 0.3 mm 4 mps 694 mmHg 85%
    23:00 +6°C° 1 mm 4 mps 693 mmHg 86%

    Day after tomorrow, 27 September, Thursday

    Time Temperature Precipitation Wind Pressure Humidity
    00:00 +5°C° 1 mm 4 mps 693 mmHg 88%
    01:00 +5°C° 1 mm 4 mps 693 mmHg 89%
    02:00 +5°C° 1.3 mm 4 mps 693 mmHg 89%
    03:00 +5°C° 1.3 mm 5 mps 693 mmHg 89%
    04:00 +5°C° 1.3 mm 5 mps 694 mmHg 89%
    05:00 +3°C° 0.6 mm 5 mps 694 mmHg 88%
    06:00 +3°C° 0.6 mm 5 mps 694 mmHg 87%
    07:00 +2°C° 0.6 mm 5 mps 695 mmHg 86%
    08:00 +2°C° 0.1 mm 5 mps 695 mmHg 83%
    09:00 +3°C° 0.1 mm 6 mps 695 mmHg 79%
    10:00 +3°C° 0.1 mm 6 mps 695 mmHg 76%
    11:00 +3°C° 0 mm 6 mps 695 mmHg 72%
    12:00 +3°C° 0 mm 6 mps 695 mmHg 69%
    13:00 +3°C° 0 mm 6 mps 695 mmHg 65%
    14:00 +3°C° 0 mm 6 mps 695 mmHg 65%
    15:00 +3°C° 0 mm 5 mps 695 mmHg 65%
    16:00 +3°C° 0 mm 5 mps 694 mmHg 65%
    17:00 +3°C° 0 mm 5 mps 694 mmHg 69%
    18:00 +2°C° 0 mm 5 mps 694 mmHg 72%
    19:00 +3°C° 0 mm 4 mps 694 mmHg 76%
    20:00 +2°C° 0.2 mm 5 mps 694 mmHg 78%
    21:00 +2°C° 0.2 mm 5 mps 694 mmHg 80%
    22:00 +2°C° 0.2 mm 5 mps 694 mmHg 82%
    23:00 +2°C° 0.4 mm 5 mps 693 mmHg 82%

    28 September, Friday

    Time Temperature Precipitation Wind Pressure Humidity
    00:00 +2°C° 0.4 mm 6 mps 693 mmHg 83%
    01:00 +2°C° 0.4 mm 6 mps 693 mmHg 84%
    02:00 +2°C° 0.6 mm 6 mps 693 mmHg 85%
    03:00 +2°C° 0.6 mm 6 mps 693 mmHg 85%
    04:00 +2°C° 0.6 mm 6 mps 693 mmHg 86%
    05:00 +2°C° 0.5 mm 6 mps 693 mmHg 86%
    06:00 +2°C° 0.5 mm 6 mps 693 mmHg 86%
    07:00 +2°C° 0.5 mm 6 mps 693 mmHg 87%
    08:00 +2°C° 0.5 mm 6 mps 694 mmHg 86%
    09:00 +2°C° 0.5 mm 6 mps 694 mmHg 85%
    10:00 +3°C° 0.5 mm 6 mps 694 mmHg 85%
    11:00 +3°C° 0.4 mm 6 mps 695 mmHg 85%
    12:00 +3°C° 0.4 mm 5 mps 695 mmHg 86%
    13:00 +3°C° 0.4 mm 5 mps 695 mmHg 87%
    14:00 +3°C° 0.2 mm 5 mps 696 mmHg 88%
    15:00 +4°C° 0.2 mm 4 mps 697 mmHg 89%
    16:00 +3°C° 0.2 mm 4 mps 697 mmHg 90%
    17:00 +3°C° 0.3 mm 3 mps 698 mmHg 91%
    18:00 +3°C° 0.3 mm 3 mps 698 mmHg 93%
    19:00 +4°C° 0.3 mm 2 mps 699 mmHg 95%
    20:00 +4°C° 0.2 mm 2 mps 700 mmHg 95%
    21:00 +3°C° 0.2 mm 2 mps 700 mmHg 95%
    22:00 +3°C° 0.2 mm 2 mps 700 mmHg 96%
    23:00 +3°C° 0.4 mm 2 mps 700 mmHg 96%

    29 September, Saturday

    Time Temperature Precipitation Wind Pressure Humidity
    00:00 +4°C° 0.4 mm 2 mps 700 mmHg 96%
    01:00 +4°C° 0.4 mm 2 mps 701 mmHg 96%
    02:00 +4°C° 0.6 mm 2 mps 701 mmHg 96%
    03:00 +4°C° 0.6 mm 2 mps 701 mmHg 97%
    04:00 +4°C° 0.6 mm 2 mps 701 mmHg 97%
    05:00 +4°C° 0.1 mm 2 mps 702 mmHg 96%
    06:00 +5°C° 0.1 mm 2 mps 702 mmHg 96%
    07:00 +5°C° 0.1 mm 2 mps 703 mmHg 96%
    08:00 +6°C° 0 mm 2 mps 703 mmHg 93%
    09:00 +8°C° 0 mm 2 mps 703 mmHg 90%
    10:00 +9°C° 0 mm 2 mps 704 mmHg 87%
    11:00 +10°C° 0 mm 2 mps 704 mmHg 83%
    12:00 +12°C° 0 mm 2 mps 704 mmHg 79%
    13:00 +12°C° 0 mm 2 mps 704 mmHg 75%
    14:00 +12°C° 0 mm 1 mps 704 mmHg 76%
    15:00 +12°C° 0 mm 1 mps 704 mmHg 76%
    16:00 +12°C° 0 mm 1 mps 704 mmHg 77%
    17:00 +11°C° 0 mm 1 mps 704 mmHg 81%
    18:00 +9°C° 0 mm 1 mps 704 mmHg 86%
    19:00 +8°C° 0 mm 1 mps 704 mmHg 90%
    20:00 +8°C° 0 mm 1 mps 704 mmHg 91%
    21:00 +7°C° 0 mm 1 mps 705 mmHg 92%
    22:00 +6°C° 0 mm 1 mps 705 mmHg 94%
    23:00 +6°C° 0 mm 1 mps 704 mmHg 94%

    30 September, Sunday

    Time Temperature Precipitation Wind Pressure Humidity
    00:00 +5°C° 0 mm 1 mps 704 mmHg 94%
    01:00 +4°C° 0 mm 1 mps 704 mmHg 94%
    02:00 +4°C° 0 mm 1 mps 704 mmHg 94%
    03:00 +4°C° 0 mm 1 mps 704 mmHg 95%
    04:00 +3°C° 0 mm 1 mps 704 mmHg 95%
    05:00 +4°C° 0 mm 1 mps 704 mmHg 94%
    06:00 +4°C° 0 mm 1 mps 704 mmHg 93%
    07:00 +4°C° 0 mm 1 mps 704 mmHg 93%
    08:00 +5°C° 0 mm 2 mps 704 mmHg 88%
    09:00 +7°C° 0 mm 2 mps 704 mmHg 83%
    10:00 +9°C° 0 mm 2 mps 704 mmHg 78%
    11:00 +10°C° 0 mm 2 mps 703 mmHg 74%
    12:00 +12°C° 0 mm 2 mps 703 mmHg 71%
    13:00 +12°C° 0 mm 3 mps 702 mmHg 68%
    14:00 +13°C° 0 mm 2 mps 702 mmHg 68%
    15:00 +13°C° 0 mm 2 mps 702 mmHg 69%
    16:00 +13°C° 0 mm 2 mps 702 mmHg 69%
    17:00 +11°C° 0 mm 1 mps 702 mmHg 75%
    18:00 +9°C° 0 mm 1 mps 702 mmHg 81%
    19:00 +7°C° 0 mm 1 mps 702 mmHg 86%
    20:00 +7°C° 0 mm 1 mps 702 mmHg 88%
    21:00 +6°C° 0 mm 1 mps 702 mmHg 89%
    22:00 +6°C° 0 mm 1 mps 702 mmHg 90%
    23:00 +6°C° 0 mm 1 mps 701 mmHg 91%
    Show more